Back to catalog

THORAD DELTA 1 DEB

LostSSO
NORAD 42626·DEBRIS·🇺🇸 United States

Launched Nov 15, 1974 from Vandenberg Space Force Base

Loading…

Next Passes (next 24 hours)

TLE

StaleSource: Space-Track

Epoch: Sep 19, 2025, 17:09 UTC

1 42626U 74089GT  25262.71493641  .00000030  00000-0  42428-3 0  9996
2 42626 101.7164 229.5669 0124679  74.5538 286.9270 12.59061206544247

Track THORAD DELTA 1 DEB in real time with AllMySat

Download on the App Store